Regional Weather Roundup
Issued by NWS

Home | Current Version | Previous Version | Text Only | Print | Product List | Glossary On
Versions: 1 2 3 4 5 6 7 8 9 10 11 12 13 14 15 16 17 18 19 20 21 22 23 24 25 26 27 28 29 30 31 32 33 34 35 36 37 38 39 40 41 42 43 44 45 46 47 48 49 50
000
ASUS45 KTFX 021204
RWRMT
MONTANA HOURLY WEATHER ROUNDUP
NATIONAL WEATHER SERVICE GREAT FALLS MT
504 AM MST MON MAR 2 2015

NOTE: "FAIR" INDICATES FEW OR NO CLOUDS BELOW 12000 FEET WITH NO
SIGNIFICANT WEATHER AND/OR OBSTRUCTIONS TO VISIBILITY.

* THESE STATIONS ARE NOT UNDER NWS QUALITY CONTROL. THEY DO NOT
   REPORT WEATHER SUCH AS PRECIPITATION OR FOG.

MTZ001>007-043-021300-
WEST OF THE DIVIDE
CITY           SKY/WX    TMP DP  RH WIND       PRES   REMARKS
KALISPELL      CLOUDY    18  12  77 CALM      29.90S
MISSOULA       MOCLDY    19  12  74 CALM      29.92F
BUTTE          CLEAR     10   3  73 SE3       29.85F
MULLAN PASS    CLOUDY    23   3  42 SW3       29.78F
* ANACONDA     CLEAR     21   5  50 S8         N/A   WCI  11
* ESSEX        N/A       12   8  84 N/A        N/A
* LINCOLN      N/A        6   1  80 NE1        N/A
* LOOKOUT PASS N/A       20   9  62 S2         N/A
* POLSON       N/A       22   9  57 N/A        N/A
* RONAN APT    PTCLDY    23  16  74 N/A        N/A
* SEELEY LAKE  N/A        4  -1  79 NE1        N/A
* THOMP F APT  PTCLDY    18  -6  34 NE4        N/A
* YAAK HILL    N/A       24  14  66 N/A        N/A
$$

MTZ008-052>055-021300-
SOUTHWEST MONTANA
CITY           SKY/WX    TMP DP  RH WIND       PRES   REMARKS
BOZEMAN        CLEAR      9   3  76 SE6       29.88F WCI  -1
DILLON         CLEAR     16   1  51 S12       29.85F WCI   3
* W YELLOWSTON CLEAR     -9 -16  71 N/A        N/A
* THREE FORKS  CLEAR      9   3  76 N/A        N/A
* BOULDER HILL N/A       19   0  43 S7         N/A   WCI  10
* MONIDA PASS  N/A        9  -5  52 N/A        N/A
* RAYNOLDS PAS N/A       11  -6  46 SE12       N/A   WCI  -4
* WHITEHALL    N/A       10  -1  61 N4G10      N/A
* WISE RIVER   N/A        6  -1  73 W3         N/A
$$

MTZ009>010-012-014-046-048-049-054-021300-
EAST SLOPES AND CENTRAL MONTANA
CITY           SKY/WX    TMP DP  RH WIND       PRES   REMARKS
CUT BANK       MOCLDY    23  10  57 NW7       29.79R WCI  15
GREAT FALLS    CLOUDY    28   9  45 SW14      29.78S WCI  17
HELENA         MOCLDY    18  10  71 CALM      29.88S
* DEARBORN     N/A       28   8  43 S10        N/A   WCI  19
* EAST GLACIER N/A       26   5  40 SW4G9      N/A
* MONARCH      N/A       27  -1  29 SW16G26    N/A   WCI  15
* PENDROY      N/A       28  11  49 NW10       N/A   WCI  19
* ROGERS PASS  N/A       23   2  40 W3G12      N/A
* SWEET GRASS  N/A       23  13  65 NW16       N/A   WCI  10
$$

MTZ011-013-016-021-035-040-045-047-050-051-021300-
NORTH CENTRAL MONTANA
CITY           SKY/WX    TMP DP  RH WIND       PRES   REMARKS
HAVRE          CLEAR      9   7  91 W5        29.80F
LEWISTOWN      PTCLDY    25   9  50 CALM      29.78F
* CHESTER      N/A       10   5  80 N2G7       N/A
* DENTON       N/A       20   7  57 SW4        N/A
* GEYSER       N/A       29   6  37 W7G12      N/A   WCI  22
* JUDITH GAP   N/A       12   8  84 SE12       N/A   WCI  -2
* LOMA         N/A       17  12  81 NE6        N/A   WCI   8
$$

MTZ017>020-022>027-061-062-021300-
NORTHEAST MONTANA
CITY           SKY/WX    TMP DP  RH WIND       PRES   REMARKS
GLASGOW        MOCLDY    18   9  68 SE14      29.88F WCI   4
GLENDIVE       PTCLDY    10   5  80 S6        29.97F
JORDAN         PTCLDY    16   9  74 E6        29.87F WCI   7
SIDNEY         PTCLDY    10   7  88 S6        30.04F
WOLF POINT     MOCLDY    14   9  80 VRB3      29.94F
* BEAVER HILL  N/A       15   6  67 SE22G27    N/A   WCI  -3
* CIRCLE       N/A       15   9  77 E4         N/A
* LINDSAY DVD  N/A        8   4  84 E10G15     N/A   WCI  -6
* NAVAJO       N/A       11   6  80 S8         N/A   WCI  -1
* SACO         N/A       17   9  71 E9         N/A   WCI   6
$$

MTZ028>042-056>058-021300-
SOUTHCENTRAL AND SOUTHEAST MONTANA
CITY           SKY/WX    TMP DP  RH WIND       PRES   REMARKS
BAKER          CLEAR     12   5  73 SE20G25   29.97F WCI  -6
BILLINGS       CLEAR     21   9  60 SW15      29.86F WCI   7
LIVINGSTON     CLEAR     18   3  52 NW16      29.84F WCI   3
MILES CITY     PTCLDY    14   7  73 S12       29.93F
* LAUREL APT   CLEAR     23   5  46 N/A        N/A
* ROUNDUP APT  CLEAR     16   3  56 S13        N/A   WCI   2
* ALZADA       N/A        4   1  87 E5         N/A   WCI  -6
* HYSHAM       N/A       18   3  52 W7         N/A   WCI   9
* LAME DEER    N/A       15   8  74 S8         N/A   WCI   4
* REED POINT   N/A        7   6  96 N/A        N/A
* ROSCOE HILL  N/A       18  -4  37 SW6        N/A   WCI  10
$$

REGIONAL REPORTS...DAKOTAS
CITY           SKY/WX    TMP DP  RH WIND       PRES   REMARKS
WILLISTON      PTCLDY    10   5  80 S5        30.03F WCI   1
DICKINSON      CLEAR     10   5  80 S14       30.04F WCI  -6
CROSBY         CLEAR      3   0  87 S10       30.03F WCI -12
WATFORD CITY   CLEAR     16   7  67 S17G23    30.02F
BISMARCK       CLEAR      7   3  83 SE9       30.23F WCI  -6
GRAND FORKS    PTCLDY    -6  -9  87 SW6       30.34F WCI -19
FARGO          CLEAR      3   0  87 S3        30.37F
BUFFALO SD     PTCLDY    12   7  80 S10       29.94F WCI  -1
RAPID CITY     PTCLDY    16   9  74 SE9       30.04F WCI   5
$$

REGIONAL REPORTS...WYOMING/IDAHO/WASHINGTON
CITY           SKY/WX    TMP DP  RH WIND       PRES   REMARKS
GILLETTE       CLEAR     18   9  68 S22       29.89F WCI   1
SHERIDAN       PTCLDY     5   0  80 CALM      29.87F
CODY           PTCLDY    14   9  80 S6        29.86S WCI   5
YELLOWSTONE LA PTCLDY   -11 -17  74 CALM      29.89F
SALMON         PTCLDY    16   9  74 CALM      29.92S
MULLAN PASS    CLOUDY    23   3  42 SW3       29.78S
SAND POINT     PTCLDY    23  18  81 CALM      29.92S
SPOKANE        CLOUDY    28  16  61 NE3       29.88F

$$



USA.gov is the U.S. government's official web portal to all federal, state and local government web resources and services.